Location: Frydek-Mistek
(49.6830°N, 18.3330°E)
Time: 10:47:35
(UTC+02:00)

Courier 1B Rocket - Visible Passes

Search period start: 23 May 2017 00:00
Search period end: 02 June 2017 00:00
Orbit: 921 x 1202 km, 28.2° (Epoch: 22 May)

Date Brightness Start Highest point End Pass type
(mag) Time Alt. Az. Time Alt. Az. Time Alt. Az.
24 May 7.1 03:32:10 10° SSW 03:35:02 12° S 03:37:55 10° SSE visible
25 May 7.2 02:34:05 11° SSE 02:34:21 11° SSE 02:35:49 10° SSE visible
26 May 7.0 03:22:53 11° SSW 03:25:44 14° S 03:29:14 10° SSE visible
27 May 7.0 02:25:22 12° SSE 02:25:22 12° SSE 02:27:57 10° SSE visible
28 May 6.9 03:14:16 12° SSW 03:16:25 14° S 03:20:06 10° SSE visible
29 May 7.0 02:16:53 13° SSE 02:16:53 13° SSE 02:19:10 10° SSE visible
30 May 6.9 03:05:59 13° SSW 03:07:08 13° S 03:10:34 10° SSE visible
31 May 7.1 02:08:51 12° SSE 02:08:51 12° SSE 02:09:55 10° SSE visible
31 May 7.1 03:57:23 10° SSW 03:58:31 10° SSW 03:59:39 10° S visible
01 Jun 7.0 02:58:18 12° S 02:58:18 12° S 03:00:30 10° S visible
